Regional Weather Roundup
Issued by NWS

Home | Current Version | Previous Version | Text Only | Print | Product List | Glossary Off
Versions: 1 2 3 4 5 6 7 8 9 10 11 12 13 14 15 16 17 18 19 20 21 22 23 24 25 26 27 28 29 30 31 32 33 34 35 36 37 38 39 40 41 42 43 44 45 46 47 48 49 50

118
ASUS45 KCYS 281310
RWRWY

WYOMING REGIONAL WEATHER ROUNDUP
NATIONAL WEATHER SERVICE CHEYENNE WY
700 AM MDT SAT MAY 28 2016

NOTE:  "FAIR" INDICATES FEW OR NO CLOUDS BELOW 12,000 FEET
WITH NO SIGNIFICANT WEATHER AND/OR OBSTRUCTIONS TO VISIBILITY.

WYZ001-281400-
YELLOWSTONE NATIONAL PARK

CITY           SKY/WX    TMP DP  RH WIND       PRES   REMARKS
LK YELLOWSTONE   N/A     34  28  79 VRB5      30.09R WCI  30
W YELLOWSTONE  NOT AVBL

$$
WYZ002>013-054>058-071-098>099-281400-
NORTHERN WYOMING

CITY           SKY/WX    TMP DP  RH WIND       PRES   REMARKS
JACKSON        SUNNY     37  32  81 CALM      30.06R
CODY           PTSUNNY   45  43  93 CALM      29.99R
GREYBULL       CLOUDY    50  45  83 W6        29.95R
WORLAND        FAIR      51  48  89 CALM      29.96R
SHERIDAN       PTSUNNY   50  44  80 CALM      29.97R
BUFFALO        FAIR      48  43  82 N13       29.97R
GILLETTE       CLOUDY    50  46  86 NW7       29.94R
HULETT         CLOUDY    50  45  81 NW3       29.94R
NEWCASTLE      FAIR      46  39  76 CALM      29.93S

$$
WYZ014>020-022>026-101>103-281400-
CENTRAL WYOMING

CITY           SKY/WX    TMP DP  RH WIND       PRES   REMARKS
BIG PINEY      FAIR      38  34  85 W3        30.09R
PINEDALE       FAIR      34  32  93 CALM      30.09R
DUBOIS         FAIR      39  28  65 N6        30.04R WCI  35
LANDER         FAIR      46  35  65 NW7       29.98R
RIVERTON       FAIR      48  42  80 NW9       29.99R
CASPER         FAIR      44  39  82 W3        29.98R
DOUGLAS          N/A    N/A N/A N/A MISG      29.98R

$$
WYZ021-027>030-104>119-281400-
SOUTHERN WYOMING

CITY           SKY/WX    TMP DP  RH WIND       PRES   REMARKS
EVANSTON       FAIR      40  34  79 SW10      30.08R WCI  33
KEMMERER         N/A     39  34  81 N5        30.10R
FORT BRIDGER   PTSUNNY   43  36  75 W6        30.12R
ROCK SPRINGS   FAIR      44  35  70 SW12      30.07R
DIXON          FAIR      38  35  91 CALM      30.12R
RAWLINS        FAIR      45  36  70 SW16      30.05R
SARATOGA       FAIR      41  36  81 S8        30.08R
LARAMIE        FAIR      42  38  85 SW6       30.05R
CHEYENNE       CLOUDY    51  38  60 NW8       30.01R
TORRINGTON     FOG       42  41  96 CALM      29.94R VSB 1/4
PINE BLUFFS    FAIR      43  41  93 CALM      29.98R

$$




USA.gov is the U.S. government's official web portal to all federal, state and local government web resources and services.